Location: Kellogg
(38.0159°N, 90.0546°W)
Time: 15:23:14
(UTC+00:00)

Vanguard 1 - All Passes

Search period start: 13 September 2024 00:00
Search period end: 23 September 2024 00:00
Orbit: 649 x 3825 km, 34.2° (Epoch: 11 September)

Date Brightness Start Highest point End Pass type
(mag) Time Alt. Az. Time Alt. Az. Time Alt. Az.
13 Sep - 16:56:23 10° SSW 17:08:04 29° SSE 17:15:23 10° E daylight
13 Sep - 19:19:19 10° WSW 19:29:34 53° SSE 19:35:24 10° E daylight
13 Sep - 21:43:06 10° W 21:49:49 59° S 21:54:22 10° ESE daylight
14 Sep - 00:05:24 10° WSW 00:09:09 23° SSW 00:12:42 10° SSE daylight
14 Sep - 14:57:01 10° S 15:05:17 15° SSE 15:11:47 10° ESE daylight
14 Sep - 17:15:21 10° SW 17:28:04 36° SSE 17:35:33 10° E daylight
14 Sep - 19:39:18 10° WSW 19:49:23 60° S 19:55:06 10° E daylight
14 Sep - 22:03:08 10° W 22:09:30 53° SSW 22:13:57 10° ESE daylight
15 Sep - 00:25:52 10° WSW 00:28:40 16° SSW 00:31:25 10° S daylight
15 Sep - 15:13:43 10° S 15:25:24 21° SSE 15:33:38 10° ESE daylight
15 Sep - 17:34:43 10° SW 17:48:01 44° SSE 17:55:29 10° E daylight
15 Sep - 19:59:24 10° WSW 20:09:11 65° S 20:14:45 10° E daylight
15 Sep - 22:23:11 10° W 22:29:08 44° SSW 22:33:27 10° SE daylight
16 Sep - 15:31:36 10° SSW 15:45:27 28° SSE 15:54:30 10° E daylight
16 Sep - 17:54:24 10° SW 18:07:56 52° SSE 18:15:18 10° E daylight
16 Sep - 20:19:33 10° W 20:28:58 66° S 20:34:24 10° E daylight
16 Sep - 22:43:16 10° W 22:48:41 34° SSW 22:52:47 10° SE daylight
17 Sep - 13:34:35 10° SSE 13:41:53 13° SE 13:48:08 10° ESE daylight
17 Sep - 15:50:10 10° SSW 16:05:29 35° SSE 16:14:52 10° E daylight
17 Sep - 18:14:20 10° WSW 18:27:49 60° SSE 18:35:02 10° E daylight
17 Sep - 20:39:43 10° W 20:48:43 64° S 20:53:59 10° ESE daylight
17 Sep - 23:03:30 10° W 23:08:09 25° SSW 23:11:53 10° SSE daylight
18 Sep - 13:49:50 10° S 14:02:00 19° SE 14:11:18 10° ESE daylight
18 Sep - 16:09:14 10° SW 16:25:30 43° SSE 16:34:57 10° E daylight
18 Sep - 18:34:26 10° WSW 18:47:41 66° S 18:54:43 10° E daylight
18 Sep - 20:59:53 10° W 21:08:24 58° SSW 21:13:32 10° ESE daylight
18 Sep - 23:24:00 10° WSW 23:27:33 17° SW 23:30:34 10° S daylight
19 Sep - 14:06:58 10° SSW 14:22:03 26° SSE 14:32:45 10° E daylight
19 Sep - 16:28:40 10° SW 16:45:29 50° SSE 16:54:52 10° E daylight
19 Sep - 18:54:39 10° WSW 19:07:33 70° S 19:14:22 10° E daylight
19 Sep - 21:20:04 10° W 21:28:02 49° SSW 21:32:59 10° SE daylight
19 Sep - 23:45:37 10° SW 23:46:52 11° SW 23:48:03 10° SSW daylight
20 Sep - 14:25:00 10° SSW 14:42:04 32° SSE 14:53:29 10° E daylight
20 Sep - 16:48:25 10° SW 17:05:26 58° SSE 17:14:40 10° E daylight
20 Sep - 19:14:56 10° W 19:27:22 71° S 19:33:59 10° E daylight
20 Sep - 21:40:15 10° W 21:47:34 39° SSW 21:52:18 10° SE daylight
21 Sep - 12:27:18 10° SSE 12:38:01 16° SE 12:47:08 10° ESE daylight
21 Sep - 14:43:38 10° SSW 15:02:05 40° SSE 15:13:48 10° E daylight
21 Sep - 17:08:24 10° WSW 17:25:23 65° SSE 17:34:24 10° E daylight
21 Sep - 19:35:14 10° W 19:47:10 69° S 19:53:34 10° ESE daylight
21 Sep - 22:00:32 10° W 22:06:58 30° SSW 22:11:24 10° SSE daylight
22 Sep - 12:43:13 10° S 12:57:59 22° SE 13:09:44 10° E daylight
22 Sep - 15:02:43 10° SW 15:22:05 47° SSE 15:33:52 10° E daylight
22 Sep - 17:28:35 10° WSW 17:45:19 70° S 17:54:05 10° E daylight
22 Sep - 19:55:32 10° W 20:06:54 63° SSW 20:13:06 10° ESE daylight
22 Sep - 22:21:03 10° W 22:26:16 21° SW 22:30:09 10° SSE daylight
